Other Public Products
Issued by NWS Grand Forks, ND

Home | Current Version | Previous Version | Graphics & Text | Print | Product List | Glossary On
Versions: 1 2 3 4 5 6 7 8 9 10 11 12 13 14 15 16 17 18 19 20 21 22 23 24 25 26 27 28 29 30 31 32 33 34 35 36 37 38 39 40 41 42 43 44 45 46 47 48 49 50
000
FPUS83 KFGF 230410
OPUFGF
PRAIRIE TO PINES WEATHER ROUNDUP
NATIONAL WEATHER SERVICE EASTERN NORTH DAKOTA/GRAND FORKS ND
1000 PM CST MON JAN 22 2018

 **SATELLITE DATA USED TO AUGMENT SKY COVER AT AUTOMATED STATIONS**
 *****  WEATHER ACROSS EASTERN NORTH DAKOTA  *****

CITY           SKY/WX    TMP DP  RH WIND       PRES   REMARKS
GRAND FORKS    CLOUDY    24  20  84 N5        30.07S WCI  18
GRND FORKS AFB CLOUDY    23  18  79 NE5       30.07S WCI  17
GRND FORKS NWS   N/A     23 N/A N/A N6          N/A  WCI  16
BUXTON           N/A     23  23  99 N7          N/A  WCI  15
DEVILS LAKE    CLOUDY    20  18  92 SE6       30.05S WCI  12
FARGO          CLOUDY    25  20  81 N9        30.03S WCI  15
WAHPETON ARPT  CLOUDY    25  19  80 N15       30.01S WCI  12
$$

 *****  WEATHER ACROSS CENTRAL AND WESTERN NORTH DAKOTA  *****

CITY           SKY/WX    TMP DP  RH WIND       PRES   REMARKS
JAMESTOWN      CLOUDY    21  19  92 NE6       30.03S WCI  13
BISMARCK       FOG       23  20  88 S3        30.04F VSB 1/2
MINOT          CLOUDY    18  16  92 S6        29.99R WCI  10
MINOT AFB      CLOUDY    17  15  90 S6        29.98R FOG     WCI   9
GARRISON         N/A     18  16  92 S12       29.98F WCI   5
WILLISTON      FAIR      25  18  74 W9        29.98S WCI  15
DICKINSON      FAIR      25  18  74 W14       29.96S WCI  13
HETTINGER      CLOUDY    23  18  81 W8        30.01S WCI  14
$$

 *****  OTHER OBSERVATIONS NORTHEAST NORTH DAKOTA  *****

CITY           SKY/WX    TMP DP  RH WIND       PRES   REMARKS
WALHALLA       FAIR      23  23 100 CALM      30.07F
LANGDON        CLOUDY    19  19 100 SE10      30.03F WCI   8
CAVALIER         N/A     23  19  86 SE3       30.07F
GRAFTON        CLOUDY    23  18  80 E3        30.10S
CANDO          CLOUDY    19  19 100 S6G14     30.05F WCI  11
FORT TOTTEN      N/A     19  17  92 S2        29.95S
ROLLA          CLOUDY    19  19 100 S14       29.99F FOG     WCI   6
RUGBY          CLOUDY    19  19 100 S10       30.01F WCI   8
 ***** THE ABOVE OBSERVATIONS ARE NON NWS ARE NOT QUALITY
        CONTROLLED AND MAY MIS-REPORT RAIN FOR SNOW...
$$

 *****  OTHER OBSERVATIONS SOUTHEAST NORTH DAKOTA *****

CITY           SKY/WX    TMP DP  RH WIND       PRES   REMARKS
COOPERSTOWN    CLOUDY    21  19  93 NE8       30.04S WCI  12
VALLEY CITY    CLOUDY    19  21 100 N9        30.05S WCI   9
OAKES            N/A     21  21 100 N10G16    30.03S WCI  10
GWINNER          N/A     23  21  93 N15       30.03R WCI  10
SHEYENNE NWR     N/A     23  21  92 N10       29.95S WCI  12
BUFFALO        NOT AVBL
WYNDMERE       NOT AVBL
 ***** THE ABOVE OBSERVATIONS ARE NON NWS ARE NOT QUALITY
       CONTROLLED AND MAY MIS-REPORT RAIN FOR SNOW...
$$

  *****  WEATHER ACROSS NORTHERN MINNESOTA  *****

CITY           SKY/WX    TMP DP  RH WIND       PRES   REMARKS
FLAG ISLAND    CLOUDY    18  12  79 N8        30.06S WCI   7
WARROAD        CLOUDY    19  16  86 N5        30.06F WCI  13
ROSEAU         CLOUDY    19  16  86 E7        30.06F WCI  10
HALLOCK        CLOUDY    25  18  74 E3        30.08S
THF RVR FALLS  CLOUDY    21  16  81 N10       30.05S WCI  10
HALSTAD        NOT AVBL
FOSSTON        MOCLDY    19  16  86 N7        30.01F WCI  10
BAUDETTE       CLOUDY    19  13  77 N7        30.02F WCI  10
WASKISH        CLOUDY    19  16  86 N7        30.01S WCI  10
CROOKSTON      CLOUDY    21  18  86 NE8       30.07S WCI  12
$$
  *****  WEATHER ACROSS CENTRAL AND WEST MINNESOTA  *****

CITY           SKY/WX    TMP DP  RH WIND       PRES   REMARKS
BEMIDJI        CLOUDY    21  17  86 N7        29.98F WCI  12
PARK RAPIDS    CLOUDY    23  17  78 NE14G24   29.95S WCI  11
WADENA         CLOUDY    21  18  86 N13       29.94S WCI   9
DETROIT LAKES  CLOUDY    25  21  86 NE7       29.98S WCI  17
MOORHEAD       CLOUDY    25  19  80 N13       30.03S WCI  13
FERGUS FALLS   CLOUDY    25  19  80 NE8       29.98S WCI  16
ELBOW LAKE     CLOUDY    24  19  83 NE14      29.97R WCI  11
MORRIS MN      CLOUDY    25  19  80 N16       29.94S WCI  12
STAPLES        CLOUDY    21  16  79 N12G18    29.93F WCI   9
WHEATON        NOT AVBL
$$
  *****  WEATHER ELSEWHERE ACROSS MINNESOTA  *****

CITY           SKY/WX    TMP DP  RH WIND       PRES   REMARKS
DULUTH         CLOUDY    19  13  77 N13G21    29.85S WCI   6
INTRNTL FALLS  CLOUDY    15   9  76 NE10      30.01F WCI   2
ELY            CLOUDY    10   7  85 N5        29.93F WCI   2
CLOQUET        CLOUDY    19  12  73 N10G25    29.86S WCI   8
BRAINERD       CLOUDY    25  16  68 N15G23    29.92R WCI  13
HIBBING        FAIR      16  11  80 N12       29.92S WCI   3
ALEXANDRIA     CLOUDY    23  18  81 N13G24    29.93R WCI  11
SAINT CLOUD    CLOUDY    26  21  81 N16G23    29.86R WCI  14
MINNEAPOLIS    LGT SNOW  27  26  96 N17       29.78R BLWGSNOWWCI  14
$$

  *****  WEATHER ACROSS SOUTH DAKOTA  *****

CITY           SKY/WX    TMP DP  RH WIND       PRES   REMARKS
SIOUX FALLS    CLOUDY    26  24  92 N25       29.91R WCI  11
BROOKINGS      CLOUDY    23  21  92 N18       29.92R WCI   9
WATERTOWN      CLOUDY    21  21 100 N16       29.94S WCI   7
HURON          CLOUDY    22  21  96 N18       30.02R WCI   7
SISSETON         N/A     24  21  88 N13       29.99S WCI  12
ABERDEEN       CLOUDY    22  21  96 N15       30.05R WCI   9
MITCHELL       CLOUDY    24  22  91 N21G30    30.01R WCI   9
PIERRE         CLOUDY    21  21 100 N8        30.04S FOG     WCI  11
MOBRIDGE       CLOUDY    24  21  88 N3        30.01S FOG
RAPID CITY     FAIR      29  18  63 NW15      30.02R WCI  18
$$

  *****  SOME WEATHER IN NEARBY STATES *****

CITY           SKY/WX    TMP DP  RH WIND       PRES   REMARKS
GLASGOW MT     FAIR      18  13  80 W7        29.99S WCI   9
GREAT FALLS MT FAIR      26  16  65 SW8       30.07R WCI  18
CHEYENNE WY    CLOUDY    25  13  60 NW8       30.05R WCI  16
SCOTTSBLUFF NE FAIR      20  13  74 W7        30.08S WCI  11
OMAHA NE       FLURRIES  30  26  85 NW24G33   29.85R WCI  16
DES MOINES IA  LGT SNOW  32  29  88 N20G30    29.62R VSB 1   WCI  20
DAVENPORT IA   FAIR      35  29  78 SW5       29.53R
CHICAGO IL     MOCLDY    40  35  83 SW10      29.49R
EAU CLAIRE WI  LGT SNOW  27  24  89 N10G21    29.69R FOG     WCI  17
LA CROSSE WI   CLOUDY    34  31  88 N15       29.60S WCI  24
$$

  *****  SOME NATIONAL WEATHER *****

CITY           SKY/WX    TMP DP  RH WIND       PRES   REMARKS
LA GUARDIA NY  FOG       37  35  92 NE10      30.08F VSB 1/8
RALEIGH NC     CLOUDY    59  56  89 S10       30.00F
ATLANTA GA     CLOUDY    61  61 100 S10       29.90F
NEW ORLEANS LA MOCLDY    59  40  49 NW8       30.04R
OKLAHOMA CITY  FAIR      39  17  41 NW13      30.07R
ALBUQUERQUE NM FAIR      32  10  40 N7        30.23S
SALT LAKE CITY MOCLDY    35  20  54 CALM      30.31R
LOS ANGELES CA FAIR      58  47  66 N5        30.17R
BOISE ID       FAIR      31  28  89 CALM      30.31R
SEATTLE WA     MOCLDY    43  38  82 SE7       30.28R
$$

*** WEATHER ACROSS MANITOBA...SASKATCHEWAN AND ONTARIO ***
                ***ONTARIO***

CITY           SKY/WX    TMP DP  RH WIND       PRES   REMARKS
GERALDTON      FLURRIES   0  -8  71 NE14      30.05F WCI -19
THUNDER BAY    NOT AVBL
SIOUX LOOKOUT  FLURRIES   7   0  72 NE3       30.07F
TORONTO        LGT RAIN  34  34 100 E7        29.67F
BIG TROUT LK   NOT AVBL
PICKLE LAKE    NOT AVBL
DRYDEN         FLURRIES   9   5  85 NE10      30.04F WCI  -6
KENORA         FLURRIES  12   9  85 NE7       30.05S WCI   2
$$
                *** MANITOBA***

CITY           SKY/WX    TMP DP  RH WIND       PRES   REMARKS
BRANDON        CLOUDY    23  19  86 S6        30.01S WCI  16
DAUPHIN        CLOUDY    23  21  93 SE8       29.98F WCI  14
ISLAND LAKE    CLEAR     -6 -11  77 SE3       30.21S
PILOT MOUND      N/A     19  18  93 S9          N/A  WCI   9
THE PAS        FLURRIES   3  -2  78 E12       30.05F WCI -13
THOMPSON       PTCLDY   -15 -20  76 NE6       30.27S WCI -29
WINNIPEG       CLOUDY    23  18  80 SE8       30.08S WCI  14
CHURCHILL      FLURRIES -11 -15  84 E6        30.50F WCI -25
GILLAM         CLEAR    -17 -24  70 NE6       30.36  WCI -31
$$
                ***SASKATCHEWAN***

CITY           SKY/WX    TMP DP  RH WIND       PRES   REMARKS
ESTEVAN        MOCLDY    16  12  86 S6        29.92F WCI   7
KINDERSLEY     CLEAR     16  12  86 W7        29.92R WCI   6
LLOYDMINSTER   CLOUDY    19  18  93 W10       29.90R FOG     WCI   8
PRINCE ALBERT  FLURRIES  10   5  79 CALM      29.94R
REGINA         CLEAR     19  16  86 W10       29.88R WCI   8
YORKTON        CLEAR     18  18 100 S10G17    29.88S WCI   6
N. BATTLEFORD  CLOUDY    23  19  86 W12       29.93R W



USA.gov is the U.S. government's official web portal to all federal, state and local government web resources and services.